Miscellaneous Local Product
Issued by NWS North Platte, NE

Home | Current Version | Previous Version | Graphics & Text | Print | Product List | Glossary On
Versions: 1 2 3 4 5 6 7 8 9 10 11 12 13 14 15 16 17 18 19 20 21 22 23 24 25 26 27 28 29 30 31 32 33 34 35 36 37 38 39 40 41 42 43 44 45 46 47 48 49 50
731
AXUS43 KLBF 281410
MISLBF


WESTERN AND NORTH CENTRAL NEBRASKA HOURLY WEATHER ROUNDUP
NATIONAL WEATHER SERVICE NORTH PLATTE NE
900 AM CDT TUE MAR 28 2017

NOTE: "FAIR" INDICATES FEW OR NO CLOUDS BELOW 12,000 FEET WITH NO
SIGNIFICANT WEATHER AND/OR OBSTRUCTIONS TO VISIBILITY.

NOTE: STATIONS NOT REPORTING VARIABLES SUCH AS SKY/WEATHER OR
PRESSURE ARE PROVIDED BY RAWS AND APRS NETWORKS AND ARE NOT UNDER
NATIONAL WEATHER SERVICE QUALITY CONTROL.

...OBSERVATIONS IN AND NEAR THE EASTERN PANHANDLE OF NEBRASKA...

CITY           SKY/WX    TMP DP  RH WIND       PRES   REMARKS
PINE RIDGE     LGT RAIN  47  46  97 N3        29.98S FOG
CHADRON        RAIN      44  42  93 NE8       29.98R FOG
ALLIANCE       RAIN      44  42  93 E6        29.95R FOG
SIDNEY         CLOUDY    44  42  93 SE16      29.90R FOG
CRESCENT LAKE    N/A     44  44 100 E9G16       N/A
$$

...OBSERVATIONS IN NORTHERN NEBRASKA AND FAR SOUTHERN SOUTH DAKOTA...

CITY           SKY/WX    TMP DP  RH WIND       PRES   REMARKS
WINNER         LGT RAIN  47  44  90 SE7       30.05R FOG
VALENTINE      LGT RAIN  45  42  89 E6        30.03R FOG
THEDFORD       FOG       43  42  97 E9        30.03R VSB 1/2
AINSWORTH      CLOUDY    42  42 100 SE6       30.05R FOG
O`NEILL        CLOUDY    42  41  98 SW5       30.08R FOG
ORD            CLOUDY    44  40  85 E3        30.06R FOG
BROKEN BOW     CLOUDY    43  41  93 E10       30.03F FOG
VALENTINE NWR    N/A     41  41  99 SE6         N/A
HALSEY           N/A     42  42 100 E5          N/A
BUTTE            N/A     42  40  92 SE3         N/A
CHAMBERS         N/A     42  41  98 CALM        N/A
EWING            N/A     40  39  96 S3          N/A
$$

...OBSERVATIONS IN SOUTHWEST NEBRASKA AND FAR NORTHEAST COLORADO...

CITY           SKY/WX    TMP DP  RH WIND       PRES   REMARKS
WRAY           LGT RAIN N/A N/A N/A SE13      29.90R
HOLYOKE        LGT RAIN  46  43  87 SE12      29.92R
IMPERIAL       LGT RAIN  45  43  93 E13       29.94R FOG
OGALLALA       CLOUDY    45  44  96 E9        29.96R FOG
NORTH PLATTE   LGT RAIN  44  42  93 E12       30.00R FOG
MCCOOK         CLOUDY    45  45 100 SE9       29.98R FOG
LEXINGTON      FOG       44  42  95 SE8       30.03R VSB 1/4
STAPLETON        N/A     42  41  96 CALM        N/A
GOTHENBURG       N/A     42  42 100 E8          N/A
CALLAWAY         N/A     41  40  98 SE12        N/A
$$

...OBSERVATIONS IN CENTRAL LINCOLN COUNTY AREA...

CITY           SKY/WX    TMP DP  RH WIND       PRES   REMARKS
N.P. AIRPORT   LGT RAIN  44  42  93 E12       30.00R FOG
N.P. DOWNTOWN    N/A     43  42  95 E5          N/A
N.P. SOUTHEAST   N/A     43  41  93 E5          N/A
N.P. HILLCREST   N/A     43  42  96 E10         N/A
$$

...SOME OBSERVATIONS FROM AROUND THE REGION...

CITY           SKY/WX    TMP DP  RH WIND       PRES   REMARKS
DENVER         CLOUDY    43  40  89 NW14      29.84R
LIMON          CLOUDY    41  41 100 SE13      29.86R FOG
ASPEN          LGT SNOW  33  33 100 CALM      29.87R FOG
LARAMIE        CLOUDY    34  33  96 N9        29.89R WCI  27
CASPER         CLOUDY    40  37  89 N13       29.97R WCI  32
CHEYENNE       FOG       38  37  97 N13       29.89R VSB 1/2 WCI  30
SCOTTSBLUFF    LGT RAIN  45  43  93 E13       29.92R FOG
GRAND ISLAND   MOSUNNY   35  35 100 N3        30.08R FOG
OMAHA          CLOUDY    42  38  85 N6        30.10R
SIOUX FALLS    PTSUNNY   38  37  97 CALM      30.11R
PIERRE         PTSUNNY   43  38  82 E7        30.04R
RAPID CITY     CLOUDY    40  33  76 NW6       29.99R
BISMARCK       FOG       33  32  96 E7        30.11R VSB 1/4 WCI  27
KANSAS CITY    DRIZZLE   48  47  96 NE7       30.08R FOG
HILL CITY      LGT RAIN  46  45  96 SE12      30.01R FOG
WICHITA        CLOUDY    50  45  83 E9        30.02S
DODGE CITY     FOG       45  45 100 SE10      29.96S VSB 1/4
OKLAHOMA CITY  PTSUNNY   50  47  89 E14       29.96F FOG
DALLAS         DRIZZLE   64  60  87 E9        29.89R
AMARILLO       CLOUDY    49  48  97 E21G30    29.82F FOG
$$




USA.gov is the U.S. government's official web portal to all federal, state and local government web resources and services.